Location: *
(44.1392°N, 4.8079°E)
Time: 21:32:57
(UTC+00:00)

Cosmos 2369 Rocket - Pass Details

Date: 21 June 2021
Orbit: 828 x 854 km, 71.0° (Epoch: 02 August)

Event Time Altitude Azimuth Distance (km) Brightness Sun altitude
Rises 00:12:50 0° 334° (NNW) 3,432 6.3 -22.1°
Reaches altitude 10° 00:15:17 10° 334° (NNW) 2,493 5.4 -22.0°
Maximum altitude 00:21:02 89° 252° (WSW) 859 2.1 -21.8°
Enters shadow 00:23:10 41° 157° (SSE) 1,219 2.6 -21.8°
